Dewpoint
70 70 69 68 70 70 71 71 74 75 74 74 73 71 69 70 71 73 71 71 70 70
70 71 71 70 69 69 70 73 74 74 72 71 70 68 69 70 71 72 71 71 69 70
70 71 71 70 71 73 70 72 75 74 72 72 69 69 68 69 71 70 70 71 70 69
72 72 72 72 72 73 73 74 74 73 71 69 70 71 71 70 70 69 69 70 69 68
73 73 73 72 72 72 72 73 74 71 71 70 70 70 70 70 70 70 69 70 69 68
72 73 73 73 73 72 73 73 73 72 71 71 71 71 70 69 68 68 69 69 68 68
72 72 72 72 72 72 74 72 72 72 72 70 66 66 66 68 68 68 69 68 68 68
72 72 72 73 73 75 73 73 72 71 67 64 64 66 66 67 68 67 67 68 68 66
72 73 74 73 73 73 73 71 70 67 64 64 66 65 67 68 68 67 67 67 66 65
75 75 73 71 72 72 71 70 68 66 64 63 62 64 65 68 66 66 65 64 63 63
75 73 72 73 71 72 70 70 67 65 63 62 62 63 63 67 66 64 64 63 62 60
73 72 72 71 72 70 71 69 67 67 65 63 61 61 62 66 66 64 62 61 62 60
73 73 73 72 70 69 69 68 69 67 65 63 61 59 61 63 68 65 64 62 61 62
74 73 71 70 70 68 67 66 66 66 66 64 61 59 60 63 67 67 66 64 64 62
Lifted_Index
-3 -3 -3 -3 -4 -4 -4 -5 -6 -6 -6 -5 -5 -4 -2 -2 -3 -4 -4 -3 -3 -3
-3 -3 -3 -3 -4 -4 -4 -5 -6 -6 -6 -5 -4 -3 -2 -2 -3 -4 -3 -3 -3 -3
-4 -4 -4 -4 -4 -5 -5 -6 -6 -6 -6 -5 -4 -3 -3 -3 -3 -3 -3 -3 -3 -3
-4 -4 -4 -4 -5 -5 -6 -7 -7 -6 -6 -5 -4 -4 -4 -3 -3 -3 -3 -3 -3 -3
-5 -5 -5 -5 -5 -6 -6 -7 -7 -6 -6 -5 -4 -4 -4 -4 -3 -3 -3 -2 -2 -2
-6 -6 -5 -6 -6 -6 -6 -6 -6 -6 -5 -5 -4 -3 -3 -3 -2 -2 -2 -2 -2 -2
-6 -6 -6 -6 -6 -6 -6 -6 -6 -5 -5 -4 -3 -2 -2 -2 -1 -1 -1 -1 -1 -1
-6 -6 -7 -7 -7 -7 -6 -6 -5 -4 -4 -2 -1 -1 -1 -1 -1 -1 -1 -1 -0 -0
-6 -7 -7 -7 -7 -7 -6 -6 -5 -3 -2 -1 -0 -0 -1 -1 -1 -0 -0 0 1 1
-6 -7 -7 -7 -7 -6 -5 -5 -4 -2 0 0 -0 -1 -1 -1 0 1 1 2 3 3
-7 -7 -7 -6 -6 -5 -5 -4 -2 -0 1 1 0 -0 -1 -1 0 1 2 3 4 4
-7 -7 -7 -6 -6 -5 -4 -3 -2 0 2 2 1 -0 -1 -1 -0 1 2 3 4 4
-6 -6 -6 -6 -5 -4 -3 -2 -1 -0 1 2 2 1 -0 -1 -1 -0 1 2 3 3
-6 -6 -5 -5 -4 -3 -2 -2 -1 -0 1 2 3 2 0 -0 -0 -0 0 2 3 3